Regional Weather Roundup
Issued by NWS Albany, NY

Current Version | Previous Version | Graphics & Text | Print | Product List | Glossary Off
Versions: 1 2 3 4 5 6 7 8 9 10 11 12 13 14 15 16 17 18 19 20 21 22 23 24 25 26 27 28 29 30 31 32 33 34 35 36 37 38 39 40 41 42 43 44 45 46 47 48 49 50

000
ASUS41 KALY 230910
RWRALY

NEW YORK STATE HOURLY WEATHER ROUNDUP
NATIONAL WEATHER SERVICE ALBANY NY
500 AM EDT WED JUL 23 2014

NOTE: "FAIR" INDICATES FEW OR NO CLOUDS BELOW 12,000 FEET WITH NO
SIGNIFICANT WEATHER AND/OR NO OBSTRUCTIONS TO VISIBILITY.

NYZ032-033-038>043-046>054-057>066-NYZ062>081-231000-
EAST


CITY           SKY/WX    TMP DP  RH WIND       PRES   REMARKS
ALBANY         PTCLDY    74  68  81 S8        29.91F
GLENS FALLS    CLEAR     72  68  87 S9        29.90S
POUGHKEEPSIE   CLEAR     71  68  90 CALM      29.95F
MONTGOMERY     CLEAR     69  67  93 CALM      29.98S
WHITE PLAINS   PTCLDY    71  64  78 CALM      29.99F
ISLIP          PTCLDY    72  66  81 SW8       29.99S
NEW YORK CITY  PTCLDY    74  62  66 S9        29.98F
CENTRAL PARK   PTCLDY    73  63  70 VRB5      30.02F
$$

NYZ005>009-017-018-044>046-055-056-231000-
CENTRAL


CITY           SKY/WX    TMP DP  RH WIND       PRES   REMARKS
FULTON         MOCLDY    76  69  79 S9        29.87S
SYRACUSE       CLOUDY    78  69  73 S7        29.87F
ROME           PTCLDY    70  67  90 NE3       29.90F
ELMIRA         CLEAR     67  67 100 CALM      29.94F FOG
BINGHAMTON     CLEAR     69  67  93 S7        29.98F
MONTICELLO     MOCLDY    66  66 100 CALM      30.02S
$$

NYZ026>034-041>043-231000-
NORTH


CITY           SKY/WX    TMP DP  RH WIND       PRES   REMARKS
WATERTOWN      CLEAR     77  66  68 SW12G20   29.82F
FORT DRUM      NOT AVBL
MASSENA        PTCLDY    74  69  85 SW13      29.79F
SARANAC LAKE   PTCLDY    65  64  97 CALM      29.90F FOG
PLATTSBURGH    PTCLDY    69  65  86 S5        29.81F
$$

NYZ001>004-010>016-019>021-231000-
WEST


CITY           SKY/WX    TMP DP  RH WIND       PRES   REMARKS
NIAGARA FALLS  CLOUDY    76  69  79 SW12      29.85S
BUFFALO        MOCLDY    78  67  68 SW13      29.87F
DUNKIRK        MOCLDY    75  67  76 S12       29.89F
JAMESTOWN      PTCLDY    70  66  88 S6        29.97F
WELLSVILLE     CLEAR     72  65  78 SW6       30.00F
ROCHESTER      PTCLDY    73  67  81 SW7       29.86F
PENN YAN       CLEAR     73  69  87 SW3       29.92F
$$

             KEY
       WCI = WIND CHILL INDEX
       VSB = VISIBILITY
       HX  = HEAT INDEX
$$


USA.gov is the U.S. government's official web portal to all federal, state and local government web resources and services.